sat.trackr.live / text

‹ back to catalog

STARLINK-37420

NORAD 69511 · 2026-133D

PAYLOAD ACTIVE UNKNOWN

§ Identity

Operator
Country
US
Launch date
2026-06-12
Launch site
AFETR
Launch vehicle
Mass (kg)
RCS (m²)

Purposes: comms

External: N2YO · Heavens-Above · Gunter

§ Orbital elements

Epoch: 2026-09-20T04:29:54.009888Z

Period
93.85 min
Inclination
53.1570°
Eccentricity
0.0001413
Mean motion
15.34402795 rev/d
Perigee alt
461.7 km
Apogee alt
463.7 km
Semi-major
6,840.8 km
B*
6.3565e-4
RAAN
231.3446°
Arg perigee
94.4672°
Mean anomaly
265.6492°
Rev number
1,671

§ Raw data

STARLINK-374201 69511U 26133D   26263.18743067  .00021163  00000+0  63565-3 0  99922 69511  53.1570 231.3446 0001413  94.4672 265.6492 15.34402795 16718

JSON: /api/v1/satellites/69511 · /tle

For live sub-satellite position, see the globe view (requires WebGL).

§ Visibility from observer

Set your observer location to see the next 7 days of passes ≥ 10°. The values pass through the URL so the page stays shareable.

No JS? Fill the form by hand. The geolocation button needs JavaScript.